User: anonymous   Login
Location: Unspecified
(0.0000°N, 0.0000°E)
Time: 12:38:30
(UTC+00:00)
Language:

NANOSAT C BR1 - Orbit

View from above orbital plane
View from above orbital plane
View from above satellite
View from above satellite

Ground track
Ground track

The orbit data is extracted from the following two-line orbital elements,

1 40024U 14033Q   18169.71170461 +.00000335 +00000-0 +40975-4 0  9993
2 40024 097.9096 086.6740 0012335 168.8808 191.2684 14.89578518216585
Epoch (UTC): 18 June 2018 17:04:51
Eccentricity: 0.0012335
inclination: 97.9096°
perigee height: 590 km
apogee height: 608 km
right ascension of ascending node: 86.6740°
argument of perigee: 168.8808°
revolutions per day: 14.89578518
mean anomaly at epoch: 191.2684°
orbit number at epoch: 21658

The dashed part of the orbit path shows where the satellite is in the earth's shadow,  

DLR